Location: Newark
(56.0692°N, 115.8617°E)
Time: 05:15:54
(UTC+00:00)

SR - Visible Passes

Search period start: 28 May 2020 00:00
Search period end: 07 June 2020 00:00
Orbit: 581 x 874 km, 66.7° (Epoch: 27 May)

Date Brightness Start Highest point End Pass type
(mag) Time Alt. Az. Time Alt. Az. Time Alt. Az.
28 May ? 14:34:51 10° NW 14:39:09 38° NNE 14:43:13 10° E visible
28 May ? 16:17:00 10° NW 16:21:25 57° SW 16:24:40 16° SSE visible
28 May ? 18:01:42 10° W 18:02:25 10° WSW 18:03:07 10° WSW visible
29 May ? 13:45:05 10° NW 13:49:08 29° NNE 13:52:58 10° E visible
29 May ? 15:27:15 10° NW 15:31:46 84° NE 15:35:49 11° SE visible
29 May ? 17:10:04 10° WNW 17:13:13 19° WSW 17:15:11 15° SW visible
30 May ? 14:37:31 10° NW 14:41:59 53° NE 14:46:12 10° ESE visible
30 May ? 16:19:51 10° NW 16:23:51 34° WSW 16:26:24 18° S visible
31 May ? 13:47:48 10° NW 13:52:04 36° NNE 13:56:05 10° E visible
31 May ? 15:29:57 10° NW 15:34:21 60° SW 15:37:39 16° SSE visible
31 May ? 17:14:12 10° W 17:15:24 11° WSW 17:16:35 10° WSW visible
01 Jun ? 14:40:11 10° NW 14:44:41 80° NE 14:48:57 10° SE visible
01 Jun ? 16:22:56 10° WNW 16:26:10 20° WSW 16:28:19 14° SSW visible
02 Jun ? 13:50:28 10° NW 13:54:54 51° NE 13:59:05 10° ESE visible
02 Jun ? 15:32:45 10° NW 15:36:48 36° WSW 15:39:40 16° S visible
03 Jun ? 14:42:52 10° NW 14:47:17 64° SW 14:51:02 13° SSE visible
03 Jun ? 16:26:50 10° W 16:28:22 12° WSW 16:29:53 10° SW visible
04 Jun ? 13:53:07 10° NW 13:57:37 77° NE 14:01:53 10° SE visible
04 Jun ? 15:35:48 10° WNW 15:39:08 21° WSW 15:41:50 12° SSW visible
05 Jun ? 14:45:40 10° NW 14:49:45 38° WSW 14:53:17 12° S visible
06 Jun ? 13:55:49 10° NW 14:00:12 67° SW 14:04:25 10° SSE visible
06 Jun ? 15:39:32 10° W 15:41:21 12° WSW 15:43:07 10° SW visible
